Weather History for KDRT - July, 2013

Change the Weather History Date:

Friday, July 12, 2013

  Actual Average Record
Temperature  
Mean Temperature 90 °F 86 °F  
Max Temperature 100 °F 96 °F 107 °F (1998)
Min Temperature 79 °F 75 °F 70 °F (1983)
Degree Days  
Heating Degree Days 0 0  
Month to date heating degree days 0 0  
Since 1 June heating degree days 0 0  
Since 1 July heating degree days 0 0  
Cooling Degree Days 25 21  
Month to date cooling degree days 248 246  
Year to date cooling degree days 1779 1576  
Since 1 June cooling degree days 873 817  
Growing Degree Days 40 (Base 50)    
Moisture  
Dew Point 62 °F    
Average Humidity 49    
Maximum Humidity 74    
Minimum Humidity 24    
Precipitation  
Precipitation 0.00 in 0.06 in 0.80 in (1925)
Month to date precipitation T 0.72  
Year to date precipitation 4.98 10.27  
Sea Level Pressure  
Sea Level Pressure 29.85 in    
Wind  
Wind Speed 10 mph (ESE)    
Max Wind Speed 20 mph    
Max Gust Speed 28 mph    
Visibility 10 miles    
Events      
T = Trace of Precipitation, MM = Missing Value Source: NWS Daily Summary

Daily Weather History Graph

Daily Weather History Graph

Search for Another Location

Airport or City:

Trip Planner

Search our weather history database for the weather conditions in past years. The results will help you decide how hot, cold, wet, or windy it might be!

Date:

Astronomy

Jul. 12, 2013 Rise Set
Actual Time 6:52 AM CDT 8:45 PM CDT
Civil Twilight 6:26 AM CDT 9:12 PM CDT
Nautical Twilight 5:53 AM CDT 9:44 PM CDT
Astronomical Twilight 5:19 AM CDT 10:18 PM CDT
Moon 10:48 AM CDT (7/12) 11:22 PM CDT (7/12)
Length of Visible Light 14h 46m
Length of Day
13h 52m
Waxing Crescent, 17% of the Moon is Illuminated
Jul 12
Waxing Crescent
Jul 15
First Quarter
Jul 22
Full
Jul 29
Last Quarter
Aug 6
New

Hourly Weather History & Observations

Time (CDT) Temp. Heat Index Dew Point Humidity Pressure Visibility Wind Dir Wind Speed Gust Speed Precip Events Conditions
12:53 AM 87.1 °F 86.7 °F 60.1 °F 40% 29.84 in 10.0 mi ESE 9.2 mph - N/A   Clear
1:53 AM 86.0 °F 87.3 °F 64.0 °F 48% 29.85 in 10.0 mi ESE 12.7 mph 19.6 mph N/A   Clear
2:53 AM 84.0 °F 86.3 °F 66.0 °F 55% 29.84 in 10.0 mi ESE 10.4 mph - N/A   Clear
3:53 AM 82.9 °F 85.8 °F 68.0 °F 60% 29.84 in 10.0 mi ESE 9.2 mph - N/A   Clear
4:53 AM 81.0 °F 84.1 °F 69.1 °F 67% 29.85 in 10.0 mi East 5.8 mph - N/A   Clear
5:53 AM 80.1 °F 82.9 °F 69.1 °F 69% 29.86 in 10.0 mi East 6.9 mph - N/A   Clear
6:53 AM 79.0 °F - 69.1 °F 72% 29.87 in 10.0 mi East 8.1 mph - N/A   Clear
7:53 AM 79.0 °F - 69.1 °F 72% 29.89 in 10.0 mi East 9.2 mph - N/A   Clear
8:53 AM 82.0 °F 85.5 °F 69.1 °F 65% 29.89 in 10.0 mi ESE 10.4 mph - N/A   Clear
9:53 AM 82.9 °F 86.5 °F 69.1 °F 63% 29.90 in 10.0 mi SE 10.4 mph - N/A   Clear
10:53 AM 87.1 °F 91.3 °F 69.1 °F 55% 29.89 in 10.0 mi SE 10.4 mph - N/A   Clear
11:53 AM 90.0 °F 94.5 °F 69.1 °F 50% 29.89 in 10.0 mi SE 8.1 mph - N/A   Clear
12:53 PM 93.0 °F 96.4 °F 66.9 °F 42% 29.88 in 10.0 mi SSE 11.5 mph 20.7 mph N/A   Partly Cloudy
1:53 PM 96.1 °F 96.9 °F 62.1 °F 32% 29.86 in 10.0 mi ESE 16.1 mph 21.9 mph N/A   Clear
2:53 PM 98.1 °F 98.6 °F 61.0 °F 29% 29.84 in 10.0 mi ESE 9.2 mph 19.6 mph N/A   Clear
3:53 PM 99.0 °F 98.1 °F 57.0 °F 25% 29.83 in 10.0 mi SE 15.0 mph 19.6 mph N/A   Clear
4:53 PM 100.0 °F 99.2 °F 57.0 °F 24% 29.82 in 10.0 mi SE 12.7 mph 24.2 mph N/A   Clear
5:53 PM 98.1 °F 96.4 °F 55.9 °F 24% 29.81 in 10.0 mi SE 15.0 mph 26.5 mph N/A   Clear
6:53 PM 98.1 °F 96.4 °F 55.9 °F 24% 29.80 in 10.0 mi SE 16.1 mph 23.0 mph N/A   Clear
7:53 PM 97.0 °F 94.6 °F 54.0 °F 23% 29.79 in 10.0 mi SE 15.0 mph 20.7 mph N/A   Clear
8:53 PM 93.9 °F 91.4 °F 53.1 °F 25% 29.80 in 10.0 mi SE 5.8 mph - N/A   Clear
9:53 PM 91.9 °F 89.5 °F 53.1 °F 27% 29.81 in 10.0 mi ESE 6.9 mph - N/A   Clear
10:53 PM 90.0 °F 87.7 °F 54.0 °F 29% 29.82 in 10.0 mi East 6.9 mph - N/A   Clear
11:53 PM 88.0 °F 86.5 °F 55.9 °F 34% 29.84 in 10.0 mi East 6.9 mph - N/A   Clear